1537783200.44,11324,254.44,73232.5,-5.63,-6.47,-6.47,0,*55
1537783201.69,11325,254.44,73244.0,-5.63,-6.19,-5.93,0,*55
1537783202.92,11326,254.44,73254.8,-5.63,-6.19,-6.05,0,*5A
1537783204.12,11327,254.44,73296.3,-5.63,-6.43,-6.43,0,*56
1537783205.32,11328,254.5,73324.5,-5.63,-6.81,-6.81,0,*59
1537783206.52,11329,254.5,73206.3,-5.67,-7.23,-7.23,0,*5C
1537783207.75,11330,254.5,73228.5,-5.65,-7.23,-7.15,0,*53
1537783208.99,11331,254.5,73334.8,-5.67,-7.43,-7.65,0,*51
1537783210.25,11332,254.5,73312.3,-5.71,-8.07,-8.07,0,*51
1537783211.45,11333,254.5,73280.3,-5.71,-8.25,-8.29,0,*5C
1537783212.64,11334,254.5,73278.3,-5.75,-8.33,-8.29,0,*58
1537783213.86,11335,254.5,73266.8,-5.75,-7.91,-7.87,0,*55
1537783215.06,11336,254.5,73258.8,-5.75,-7.49,-7.49,0,*51
1537783216.28,11337,254.5,73242.0,-5.79,-7.27,-7.11,0,*59
1537783217.49,11338,254.5,73230.0,-5.79,-7.15,-7.11,0,*57
1537783218.71,11339,254.5,73222.8,-5.79,-7.11,-7.01,0,*53
1537783219.92,11340,254.5,73224.3,-5.79,-6.55,-6.43,0,*5B
1537783221.12,11341,254.5,73202.0,-5.79,-6.47,-6.31,0,*5C
1537783222.32,11342,254.5,73216.5,-5.79,-6.55,-6.47,0,*5D
1537783223.51,11343,254.5,73224.5,-5.79,-6.73,-6.73,0,*5F
1537783224.74,11344,254.5,73224.5,-5.77,-7.23,-7.23,0,*56
1537783225.98,11345,254.5,73250.0,-5.79,-7.39,-7.39,0,*59
1537783227.23,11346,254.5,73244.3,-5.83,-7.57,-7.57,0,*5F
1537783228.51,11347,254.5,73266.5,-5.85,-7.61,-7.61,0,*58
1537783229.75,11348,254.5,73304.3,-5.85,-7.57,-7.53,0,*53
1537783230.98,11349,254.5,73326.0,-5.87,-7.57,-7.49,0,*5B
1537783232.23,11350,254.5,73276.0,-5.87,-7.65,-7.61,0,*58
1537783233.49,11351,254.5,73254.3,-5.87,-7.73,-7.57,0,*5B
1537783234.76,11352,254.5,73248.3,-5.89,-7.77,-7.73,0,*54
1537783236.03,11353,254.5,73244.0,-5.89,-8.03,-7.91,0,*55
1537783237.31,11354,254.5,73252.3,-5.93,-8.11,-8.07,0,*5A
1537783238.56,11355,254.5,73260.5,-5.91,-8.07,-8.03,0,*5A
1537783239.78,11356,254.56,73294.3,-5.93,-8.25,-8.21,0,*5B
1537783241.02,11357,254.56,73218.5,-5.95,-8.25,-8.07,0,*58
1537783242.21,11358,254.56,73156.8,-5.95,-8.33,-8.25,0,*50
1537783243.4,11359,254.56,73212.5,-5.97,-8.21,-8.21,0,*54
1537783244.64,11360,254.56,73204.3,-5.97,-7.99,-7.99,0,*5E
1537783245.87,11361,254.56,73216.0,-6.01,-7.57,-7.49,0,*5C
1537783247.11,11362,254.56,73220.3,-5.99,-7.11,-6.93,0,*59
1537783248.36,11363,254.56,73204.5,-5.99,-7.87,-7.73,0,*58
1537783249.58,11364,254.56,73216.3,-6.01,-7.87,-7.73,0,*5D
1537783250.76,11365,254.56,73236.3,-6.01,-8.29,-8.17,0,*5A
1537783251.96,11366,254.56,73250.8,-6.05,-8.41,-8.41,0,*50
1537783253.24,11367,254.56,73236.5,-6.07,-8.11,-8.07,0,*54
1537783254.46,11368,254.56,73240.0,-6.07,-8.33,-8.25,0,*5B
1537783255.73,11369,254.56,73266.8,-6.07,-7.95,-7.95,0,*5D
1537783257.01,11370,254.56,73268.3,-6.07,-7.57,-7.57,0,*55
1537783258.27,11371,254.56,73270.0,-6.07,-7.69,-7.69,0,*54
1537783259.55,11372,254.56,73250.8,-6.07,-7.57,-7.31,0,*57
1537783260.77,11373,254.56,73260.8,-6.09,-7.19,-7.05,0,*55
1537783261.97,11374,254.56,73262.3,-6.09,-6.85,-6.77,0,*52
1537783263.22,11375,254.56,73262.5,-6.11,-6.77,-6.63,0,*52
1537783264.42,11376,254.56,73264.3,-6.09,-6.73,-6.59,0,*55
1537783265.62,11377,254.56,73264.8,-6.09,-6.73,-6.59,0,*54
1537783266.85,11378,254.56,73250.5,-6.05,-6.27,-6.23,0,*5B
1537783268.08,11379,254.56,73248.0,-6.05,-6.19,-6.05,0,*53
1537783269.3,11380,254.56,73246.0,-6.05,-6.19,-6.09,0,*59
1537783270.51,11381,254.56,73244.3,-6.05,-6.23,-6.09,0,*51
1537783271.7,11382,254.56,73236.0,-6.01,-6.05,-6.01,0,*5A
1537783272.91,11383,254.56,73230.0,-5.99,-6.05,-6.01,0,*59
1537783274.15,11384,254.56,73200.3,-5.99,-6.19,-6.05,0,*57
1537783275.39,11385,254.56,73200.0,-5.99,-6.27,-6.13,0,*5C
1537783276.61,11386,254.56,73204.5,-5.97,-6.35,-6.23,0,*51
1537783277.82,11387,254.56,73192.0,-5.97,-6.39,-6.27,0,*58
1537783279.02,11388,254.56,73188.8,-5.97,-6.59,-6.51,0,*50
1537783280.24,11389,254.56,73180.0,-5.97,-6.63,-6.59,0,*50
1537783281.45,11390,254.56,73176.0,-5.97,-6.73,-6.63,0,*50
1537783282.65,11391,254.56,73176.0,-5.95,-6.89,-6.77,0,*53
1537783283.88,11392,254.56,73180.5,-5.95,-6.73,-6.63,0,*50
1537783285.08,11393,254.56,73174.8,-5.97,-6.59,-6.47,0,*5D
1537783286.28,11394,254.56,73176.3,-5.95,-6.13,-6.01,0,*54
1537783287.51,11395,254.56,73186.8,-5.95,-6.01,-5.93,0,*5E
1537783288.74,11396,254.56,73190.8,-5.95,-6.01,-5.93,0,*5D
1537783289.96,11397,254.56,73194.3,-5.95,-6.01,-5.93,0,*5C
1537783291.22,11398,254.56,73196.8,-5.93,-5.97,-5.93,0,*59
1537783292.44,11399,254.56,73210.0,-5.93,-6.01,-5.97,0,*50
1537783293.67,11400,254.56,73214.3,-5.91,-5.97,-5.89,0,*56
1537783294.92,11401,254.56,73222.0,-5.91,-5.93,-5.81,0,*5B
1537783296.2,11402,254.56,73220.0,-5.93,-5.93,-5.85,0,*5E
1537783297.45,11403,254.56,73220.0,-5.91,-5.89,-5.77,0,*5B
1537783298.7,11404,254.56,73230.8,-5.87,-5.85,-5.77,0,*57
1537783299.93,11405,254.56,73218.3,-5.87,-6.01,-5.93,0,*53
1537783301.17,11406,254.56,73224.3,-5.89,-6.05,-5.93,0,*5A
1537783302.45,11407,254.56,73236.3,-5.89,-5.89,-5.85,0,*5B
1537783303.71,11408,254.56,73242.5,-5.87,-5.93,-5.85,0,*51
1537783304.96,11409,254.56,73250.0,-5.87,-5.89,-5.85,0,*5B
1537783306.21,11410,254.56,73252.0,-5.87,-5.85,-5.73,0,*56
1537783307.47,11411,254.56,73254.0,-5.87,-5.77,-5.61,0,*59
1537783308.72,11412,254.56,73254.8,-5.87,-5.77,-5.65,0,*5E
1537783309.99,11413,254.56,73250.8,-5.85,-5.69,-5.61,0,*56
1537783311.21,11414,254.56,73250.5,-5.83,-5.69,-5.47,0,*53
1537783312.46,11415,254.56,73252.0,-5.83,-5.73,-5.61,0,*5D
1537783313.7,11416,254.56,73256.0,-5.83,-5.73,-5.69,0,*56
1537783314.95,11417,254.56,73256.5,-5.79,-5.81,-5.65,0,*53
1537783316.2,11418,254.56,73250.8,-5.79,-5.81,-5.77,0,*5F
1537783317.47,11419,254.56,73254.8,-5.77,-5.77,-5.77,0,*59
1537783318.72,11420,254.56,73256.5,-5.77,-5.65,-5.51,0,*54
1537783319.99,11421,254.5,73262.5,-5.77,-5.69,-5.65,0,*5E
1537783321.2,11422,254.56,73258.3,-5.79,-5.55,-5.51,0,*5B
1537783322.43,11423,254.56,73254.3,-5.77,-5.55,-5.39,0,*5A
1537783323.65,11424,254.5,73256.3,-5.77,-5.51,-5.43,0,*54
1537783324.9,11425,254.56,73252.3,-5.77,-5.39,-5.27,0,*59
1537783326.18,11426,254.56,73254.3,-5.77,-5.27,-5.19,0,*58
1537783327.43,11427,254.56,73252.8,-5.75,-5.23,-5.11,0,*57
1537783328.68,11428,254.56,73252.8,-5.75,-5.23,-5.11,0,*58
1537783329.97,11429,254.56,73254.0,-5.73,-5.23,-5.03,0,*5C
1537783331.22,11430,254.5,73252.0,-5.71,-5.19,-5.07,0,*5B
1537783332.48,11431,254.56,73250.0,-5.71,-5.23,-5.19,0,*5C
1537783333.74,11432,254.56,73244.3,-5.71,-5.31,-5.19,0,*5C
1537783335.02,11433,254.56,73230.5,-5.69,-5.31,-5.19,0,*54
1537783336.26,11434,254.56,73230.3,-5.69,-5.43,-5.31,0,*5C
1537783337.52,11435,254.5,73228.5,-5.69,-5.51,-5.31,0,*5E
1537783338.77,11436,254.56,73216.3,-5.69,-5.51,-5.31,0,*5D
1537783339.99,11437,254.5,73212.8,-5.69,-5.55,-5.43,0,*5D
1537783341.23,11438,254.5,73204.8,-5.71,-5.39,-5.27,0,*53
1537783342.47,11439,254.5,73200.5,-5.67,-5.27,-5.15,0,*5B
1537783343.69,11440,254.5,73200.0,-5.65,-5.43,-5.39,0,*5B
1537783344.93,11441,254.5,73190.5,-5.67,-5.73,-5.69,0,*5E
1537783346.18,11442,254.5,73194.0,-5.67,-5.93,-5.81,0,*55
1537783347.4,11443,254.5,73192.0,-5.67,-5.97,-5.93,0,*53
1537783348.67,11444,254.5,73224.8,-5.65,-5.81,-5.73,0,*5F
1537783349.92,11445,254.5,73246.3,-5.67,-5.81,-5.69,0,*57
1537783351.14,11446,254.5,73240.0,-5.67,-5.97,-5.93,0,*56
1537783352.36,11447,254.5,73232.8,-5.67,-5.97,-5.93,0,*57
1537783353.56,11448,254.5,73244.8,-5.67,-6.47,-6.31,0,*5D
1537783354.78,11449,254.5,73250.5,-5.67,-6.19,-6.05,0,*50
1537783356.03,11450,254.5,73250.3,-5.67,-5.93,-5.85,0,*52
1537783357.31,11451,254.5,73252.8,-5.69,-5.93,-5.81,0,*59
1537783358.56,11452,254.5,73254.0,-5.69,-5.97,-5.81,0,*5E
1537783359.83,11453,254.5,73258.5,-5.69,-5.69,-5.65,0,*54
1537783361.06,11454,254.5,73248.5,-5.67,-5.65,-5.51,0,*56
1537783362.25,11455,254.5,73248.5,-5.67,-5.51,-5.39,0,*5E
1537783363.45,11456,254.5,73260.8,-5.67,-5.55,-5.43,0,*54
1537783364.68,11457,254.5,73266.8,-5.67,-5.55,-5.31,0,*50
1537783365.91,11458,254.5,73254.8,-5.67,-5.43,-5.27,0,*5F
1537783367.18,11459,254.5,73256.8,-5.65,-5.31,-5.15,0,*58
1537783368.46,11460,254.5,73272.5,-5.65,-5.31,-5.19,0,*5E
1537783369.69,11461,254.5,73274.8,-5.65,-5.55,-5.51,0,*51
1537783370.92,11462,254.5,73282.8,-5.65,-5.55,-5.55,0,*56
1537783372.12,11463,254.5,73278.5,-5.63,-5.51,-5.39,0,*5F
1537783373.33,11464,254.5,73286.0,-5.63,-5.47,-5.39,0,*5F
1537783374.55,11465,254.5,73278.8,-5.63,-5.35,-5.27,0,*54
1537783375.75,11466,254.5,73288.3,-5.63,-5.47,-5.35,0,*51
1537783376.98,11467,254.5,73292.5,-5.63,-5.39,-5.23,0,*5E
1537783378.24,11468,254.5,73292.5,-5.63,-5.27,-5.15,0,*5B
1537783379.47,11469,254.5,73296.5,-5.63,-5.39,-5.27,0,*54
1537783380.69,11470,254.5,73284.3,-5.63,-5.61,-5.47,0,*57
1537783381.97,11471,254.5,73290.3,-5.61,-5.69,-5.61,0,*58
1537783383.22,11472,254.5,73282.0,-5.57,-5.73,-5.55,0,*52
1537783384.45,11473,254.5,73290.0,-5.57,-5.55,-5.47,0,*54
1537783385.7,11474,254.5,73286.3,-5.61,-5.69,-5.51,0,*5E
1537783386.98,11475,254.5,73282.5,-5.61,-5.77,-5.69,0,*5B
1537783388.26,11476,254.44,73274.8,-5.61,-5.69,-5.61,0,*5F
1537783389.51,11477,254.5,73278.5,-5.61,-5.61,-5.51,0,*55
1537783390.76,11478,254.5,73278.3,-5.61,-5.61,-5.47,0,*5D
1537783392.02,11479,254.5,73270.5,-5.57,-5.47,-5.31,0,*5C
1537783393.29,11480,254.5,73256.5,-5.57,-5.31,-5.19,0,*51
1537783394.52,11481,254.5,73236.0,-5.55,-5.39,-5.19,0,*5A
1537783395.71,11482,254.5,73240.5,-5.55,-5.47,-5.43,0,*5F
1537783396.96,11483,254.5,73236.3,-5.55,-5.73,-5.65,0,*5D
1537783398.21,11484,254.5,73238.3,-5.57,-5.97,-5.85,0,*5C
1537783399.46,11485,254.5,73238.5,-5.55,-5.93,-5.81,0,*5F
1537783400.71,11486,254.44,73238.5,-5.55,-5.85,-5.73,0,*56
1537783401.98,11487,254.44,73228.0,-5.57,-5.77,-5.73,0,*58
1537783403.23,11488,254.44,73224.5,-5.57,-5.97,-5.85,0,*50
1537783404.42,11489,254.44,73224.3,-5.55,-6.05,-5.97,0,*58
1537783405.64,11490,254.44,73228.3,-5.57,-6.09,-6.01,0,*52
1537783406.86,11491,254.44,73216.3,-5.57,-6.13,-6.01,0,*58
1537783408.09,11492,254.44,73212.5,-5.61,-6.31,-6.13,0,*5D
1537783409.31,11493,254.44,73212.0,-5.63,-6.39,-6.19,0,*5C
1537783410.57,11494,254.44,73200.0,-5.61,-6.31,-6.19,0,*51
1537783411.77,11495,254.44,73204.5,-5.63,-6.47,-6.31,0,*59
1537783413.02,11496,254.44,73196.0,-5.61,-6.43,-6.19,0,*56
1537783414.25,11497,254.44,73192.5,-5.61,-6.39,-6.31,0,*50
1537783415.48,11498,254.5,73192.0,-5.63,-6.19,-6.01,0,*5C
1537783416.7,11499,254.5,73192.8,-5.63,-6.19,-6.05,0,*59
1537783417.95,11500,254.44,73196.5,-5.63,-5.89,-5.77,0,*54
1537783419.2,11501,254.44,73210.8,-5.63,-5.69,-5.61,0,*5C
1537783420.43,11502,254.44,73210.8,-5.61,-5.47,-5.35,0,*50
1537783421.63,11503,254.44,73212.8,-5.63,-5.51,-5.39,0,*58
1537783422.83,11504,254.44,73224.8,-5.63,-5.51,-5.47,0,*56
1537783424.03,11505,254.44,73226.8,-5.63,-5.47,-5.39,0,*59
1537783425.31,11506,254.44,73240.5,-5.61,-5.23,-5.11,0,*50
1537783426.59,11507,254.44,73246.0,-5.61,-5.27,-5.11,0,*55
1537783427.87,11508,254.44,73250.8,-5.61,-5.27,-5.15,0,*5E
1537783429.15,11509,254.44,73254.3,-5.57,-5.31,-5.23,0,*58
1537783430.4,11510,254.38,73268.0,-5.57,-5.43,-5.19,0,*5C
1537783431.65,11511,254.44,73244.8,-5.57,-5.43,-5.23,0,*54
1537783432.84,11512,254.44,73250.8,-5.55,-5.43,-5.35,0,*52
1537783434.03,11513,254.44,73254.8,-5.55,-5.43,-5.43,0,*52
1537783435.22,11514,254.44,73262.8,-5.55,-5.43,-5.39,0,*58
1537783436.48,11515,254.44,73264.8,-5.55,-5.31,-5.15,0,*52
1537783437.73,11516,254.44,73264.5,-5.55,-5.31,-5.19,0,*5D
1537783438.98,11517,254.44,73266.8,-5.55,-5.31,-5.19,0,*5C
1537783440.23,11518,254.44,73266.3,-5.55,-5.15,-5.03,0,*5E
1537783441.52,11519,254.44,73262.8,-5.53,-5.07,-4.89,0,*59
1537783442.79,11520,254.44,73274.0,-5.53,-5.27,-5.15,0,*55
1537783444.05,11521,254.44,73280.5,-5.51,-5.27,-5.15,0,*56
1537783445.33,11522,254.38,73278.0,-5.53,-5.15,-5.03,0,*51
1537783446.58,11523,254.38,73286.0,-5.51,-5.07,-4.89,0,*52
1537783447.81,11524,254.38,73290.0,-5.51,-5.03,-4.99,0,*50
1537783449.03,11525,254.38,73284.3,-5.51,-4.99,-4.89,0,*52
1537783450.25,11526,254.38,73286.3,-5.51,-5.15,-4.99,0,*55
1537783451.53,11527,254.38,73290.0,-5.49,-5.15,-5.11,0,*5C
1537783452.78,11528,254.38,73286.3,-5.45,-5.23,-4.99,0,*5B
1537783454.06,11529,254.38,73290.0,-5.45,-5.07,-4.93,0,*56
1537783455.33,11530,254.38,73286.5,-5.45,-5.07,-4.93,0,*5E
1537783456.58,11531,254.38,73292.8,-5.45,-4.99,-4.81,0,*5A
1537783457.82,11532,254.38,73292.0,-5.45,-4.99,-4.73,0,*54
1537783459.07,11533,254.38,73288.3,-5.45,-4.99,-4.85,0,*5C
1537783460.3,11534,254.38,73296.3,-5.45,-5.47,-5.43,0,*52
1537783461.52,11535,254.38,73312.8,-5.45,-5.51,-5.35,0,*55
1537783462.75,11536,254.38,73318.5,-5.45,-5.51,-5.43,0,*57
1537783464.03,11537,254.38,73338.0,-5.45,-5.65,-5.61,0,*51
1537783465.31,11538,254.38,73336.8,-5.45,-5.85,-5.73,0,*53
1537783466.59,11539,254.38,73306.3,-5.45,-5.77,-5.61,0,*5C
1537783467.87,11540,254.38,73300.3,-5.45,-5.73,-5.61,0,*56
1537783469.14,11541,254.38,73334.5,-5.49,-5.89,-5.77,0,*59
1537783470.39,11542,254.38,73342.3,-5.49,-6.31,-6.19,0,*51
1537783471.61,11543,254.38,73338.8,-5.49,-6.47,-6.43,0,*5E
1537783472.81,11544,254.38,73354.3,-5.51,-6.81,-6.69,0,*52
1537783474.06,11545,254.38,73352.5,-5.51,-6.97,-6.93,0,*51
1537783475.33,11546,254.38,73354.0,-5.53,-7.39,-7.39,0,*54
1537783476.58,11547,254.38,73346.5,-5.53,-7.83,-7.77,0,*5E
1537783477.83,11548,254.38,73338.3,-5.57,-7.95,-7.87,0,*5D
1537783479.1,11549,254.38,73308.3,-5.61,-7.77,-7.77,0,*5A
1537783480.33,11550,254.38,73282.3,-5.63,-7.87,-7.77,0,*5F
1537783481.58,11551,254.38,73260.3,-5.65,-7.35,-7.23,0,*50
1537783482.77,11552,254.38,73268.5,-5.67,-6.89,-6.89,0,*56
1537783484.01,11553,254.38,73258.3,-5.67,-7.01,-6.97,0,*59
1537783485.26,11554,254.38,73244.0,-5.69,-7.11,-6.97,0,*51
1537783486.47,11555,254.38,73236.3,-5.71,-6.81,-6.69,0,*50
1537783487.66,11556,254.38,73236.8,-5.71,-6.69,-6.69,0,*55
1537783488.86,11557,254.38,73238.8,-5.71,-6.55,-6.47,0,*57
1537783490.06,11558,254.38,73248.5,-5.71,-6.81,-6.77,0,*52
1537783491.29,11559,254.38,73248.0,-5.71,-7.01,-6.89,0,*5B
1537783492.49,11560,254.38,73228.8,-5.71,-7.49,-7.49,0,*50
1537783493.76,11561,254.38,73264.8,-5.73,-7.43,-7.43,0,*53
1537783494.98,11562,254.38,73274.8,-5.75,-7.49,-7.43,0,*5C
1537783496.21,11563,254.38,73282.8,-5.75,-7.87,-7.73,0,*5C
1537783497.46,11564,254.38,73276.8,-5.77,-7.91,-7.83,0,*51
1537783498.7,11565,254.38,73254.8,-5.79,-8.07,-7.95,0,*59
1537783499.95,11566,254.38,73214.3,-5.85,-7.95,-7.83,0,*5A
1537783501.22,11567,254.38,73224.0,-5.85,-7.43,-7.31,0,*59
1537783502.49,11568,254.38,73218.5,-5.85,-7.31,-7.31,0,*53
1537783503.74,11569,254.38,73226.8,-5.89,-7.11,-6.93,0,*55
1537783504.99,11570,254.38,73250.3,-5.87,-6.97,-6.97,0,*58
1537783506.21,11571,254.38,73252.8,-5.89,-6.85,-6.73,0,*5E
1537783507.43,11572,254.38,73262.3,-5.87,-6.63,-6.55,0,*5F
1537783508.62,11573,254.38,73274.5,-5.87,-6.69,-6.55,0,*54
1537783509.82,11574,254.38,73260.0,-5.87,-6.69,-6.55,0,*53
1537783511.04,11575,254.38,73238.3,-5.85,-6.89,-6.77,0,*5E
1537783512.25,11576,254.38,73216.0,-5.87,-7.23,-7.05,0,*5A
1537783513.5,11577,254.38,73204.3,-5.89,-7.19,-6.97,0,*56
1537783514.75,11578,254.38,73202.5,-5.89,-6.63,-6.51,0,*5F
1537783515.98,11579,254.38,73200.3,-5.89,-6.51,-6.43,0,*5C
1537783517.2,11580,254.38,73202.0,-5.87,-6.19,-6.01,0,*5E
1537783518.43,11581,254.38,73206.3,-5.87,-6.01,-5.85,0,*59
1537783519.65,11582,254.38,73206.5,-5.87,-6.05,-5.93,0,*59
1537783520.87,11583,254.31,73214.0,-5.87,-6.01,-5.93,0,*5C
1537783522.13,11584,254.31,73222.3,-5.87,-5.93,-5.93,0,*53
1537783523.38,11585,254.38,73224.0,-5.85,-5.97,-5.85,0,*53
1537783524.63,11586,254.31,73226.8,-5.83,-5.81,-5.81,0,*55
1537783525.87,11587,254.31,73230.0,-5.83,-5.81,-5.73,0,*59
1537783527.12,11588,254.38,73226.3,-5.83,-5.81,-5.69,0,*5D
1537783528.34,11589,254.38,73222.5,-5.83,-5.73,-5.55,0,*5E
1537783529.56,11590,254.38,73228.3,-5.79,-5.65,-5.43,0,*53
1537783530.81,11591,254.38,73232.0,-5.79,-5.69,-5.69,0,*56
1537783532.06,11592,254.38,73234.0,-5.77,-5.65,-5.51,0,*5C
1537783533.31,11593,254.38,73242.0,-5.77,-5.65,-5.43,0,*5E
1537783534.58,11594,254.31,73238.5,-5.77,-5.77,-5.69,0,*52
1537783535.83,11595,254.31,73244.8,-5.75,-5.77,-5.65,0,*5D
1537783537.08,11596,254.38,73242.3,-5.75,-5.77,-5.65,0,*5E
1537783538.33,11597,254.31,73240.8,-5.75,-5.77,-5.73,0,*58
1537783539.58,11598,254.31,73240.5,-5.75,-5.89,-5.77,0,*52
1537783540.8,11599,254.31,73260.5,-5.75,-6.01,-5.89,0,*51
1537783542.07,11600,254.31,73254.3,-5.73,-5.89,-5.77,0,*56
1537783543.34,11601,254.31,73260.8,-5.73,-5.77,-5.73,0,*52
1537783544.61,11602,254.38,73260.8,-5.73,-5.73,-5.65,0,*52
1537783545.88,11603,254.31,73272.8,-5.73,-5.81,-5.73,0,*59
1537783547.14,11604,254.31,73278.3,-5.71,-5.85,-5.69,0,*53
1537783548.4,11605,254.31,73276.8,-5.73,-5.73,-5.73,0,*52
1537783549.67,11606,254.38,73276.5,-5.73,-5.73,-5.61,0,*52
1537783550.91,11607,254.31,73280.0,-5.73,-5.61,-5.47,0,*54
1537783552.17,11608,254.31,73282.8,-5.73,-5.47,-5.27,0,*59
1537783553.4,11609,254.31,73278.5,-5.71,-5.47,-5.31,0,*5D
1537783554.6,11610,254.31,73276.0,-5.71,-5.47,-5.43,0,*50
1537783555.86,11611,254.31,73274.3,-5.69,-5.55,-5.31,0,*5E
1537783557.11,11612,254.31,73276.0,-5.69,-5.55,-5.31,0,*5D
1537783558.34,11613,254.31,73276.5,-5.69,-5.51,-5.39,0,*50
1537783559.59,11614,254.31,73272.3,-5.69,-5.43,-5.27,0,*5B
1537783560.86,11615,254.31,73274.5,-5.65,-5.27,-5.15,0,*55
1537783562.11,11616,254.31,73262.8,-5.65,-5.39,-5.19,0,*55
1537783563.33,11617,254.31,73260.3,-5.67,-5.39,-5.27,0,*5B
1537783564.58,11618,254.31,73260.0,-5.65,-5.43,-5.19,0,*56
1537783565.83,11619,254.31,73248.8,-5.65,-5.39,-5.31,0,*50
1537783567.09,11620,254.31,73248.5,-5.61,-5.47,-5.27,0,*50
1537783568.32,11621,254.38,73244.0,-5.63,-5.35,-5.27,0,*56
1537783569.51,11622,254.31,73244.0,-5.63,-5.39,-5.35,0,*5A
1537783570.72,11623,254.31,73244.3,-5.63,-5.47,-5.35,0,*52
1537783571.95,11624,254.31,73240.5,-5.61,-5.51,-5.51,0,*52
1537783573.17,11625,254.31,73242.5,-5.63,-5.61,-5.47,0,*55
1537783574.39,11626,254.31,73242.3,-5.63,-5.61,-5.47,0,*56
1537783575.62,11627,254.31,73238.8,-5.63,-5.65,-5.51,0,*54
1537783576.9,11628,254.31,73242.5,-5.61,-5.77,-5.69,0,*51
1537783578.14,11629,254.31,73242.8,-5.63,-5.89,-5.77,0,*5C
1537783579.39,11630,254.31,73242.0,-5.63,-5.89,-5.77,0,*54
1537783580.67,11631,254.31,73240.0,-5.61,-5.81,-5.65,0,*5C
1537783581.92,11632,254.31,73242.0,-5.63,-5.77,-5.69,0,*58
1537783583.17,11633,254.31,73244.5,-5.63,-5.77,-5.69,0,*59
1537783584.42,11634,254.31,73248.8,-5.63,-5.81,-5.77,0,*58
1537783585.7,11635,254.31,73248.8,-5.61,-5.89,-5.81,0,*5A
1537783586.92,11636,254.31,73254.0,-5.63,-6.05,-5.89,0,*54
1537783588.17,11637,254.31,73252.0,-5.63,-5.89,-5.77,0,*53
1537783589.42,11638,254.31,73256.3,-5.63,-5.81,-5.77,0,*54
1537783590.67,11639,254.31,73262.0,-5.63,-5.77,-5.77,0,*5C
1537783591.92,11640,254.31,73260.5,-5.63,-5.77,-5.65,0,*51
1537783593.17,11641,254.31,73268.3,-5.63,-5.77,-5.61,0,*54
1537783594.42,11642,254.31,73264.8,-5.63,-5.61,-5.61,0,*50
1537783595.67,11643,254.31,73264.0,-5.63,-5.69,-5.65,0,*5D
1537783596.92,11644,254.31,73262.5,-5.63,-5.77,-5.69,0,*59
1537783598.18,11645,254.31,73260.3,-5.63,-5.69,-5.61,0,*5F
1537783599.46,11646,254.31,73262.0,-5.61,-5.61,-5.61,0,*56
1537783600.68,11647,254.31,73258.8,-5.63,-5.65,-5.47,0,*55
1537783601.96,11648,254.31,73256.5,-5.61,-5.69,-5.69,0,*58
1537783603.21,11649,254.31,73262.8,-5.63,-5.69,-5.69,0,*5B
1537783604.46,11650,254.31,73258.8,-5.63,-5.69,-5.65,0,*5F
1537783605.71,11651,254.31,73258.8,-5.63,-5.69,-5.65,0,*5E
1537783606.96,11652,254.31,73256.5,-5.63,-5.69,-5.69,0,*51
1537783608.22,11653,254.31,73262.5,-5.63,-5.93,-5.81,0,*53
1537783609.47,11654,254.31,73254.8,-5.63,-5.77,-5.77,0,*57
1537783610.72,11655,254.31,73250.0,-5.63,-5.81,-5.69,0,*50
1537783611.97,11656,254.31,73250.8,-5.63,-5.77,-5.69,0,*5A
1537783613.22,11657,254.31,73254.0,-5.63,-5.77,-5.65,0,*57
1537783614.47,11658,254.31,73248.5,-5.63,-5.77,-5.61,0,*5C
1537783615.72,11659,254.31,73244.8,-5.63,-5.77,-5.69,0,*55
1537783617.0,11660,254.31,73252.3,-5.61,-5.77,-5.65,0,*51
1537783618.25,11661,254.31,73252.8,-5.63,-5.77,-5.65,0,*52
1537783619.5,11662,254.31,73250.0,-5.63,-5.69,-5.65,0,*5E
1537783620.75,11663,254.31,73246.3,-5.63,-5.69,-5.69,0,*53
1537783622.03,11664,254.31,73246.8,-5.61,-5.81,-5.69,0,*50
1537783623.31,11665,254.31,73250.5,-5.61,-5.81,-5.77,0,*5E
1537783624.56,11666,254.31,73248.0,-5.63,-5.77,-5.61,0,*51
1537783625.81,11667,254.31,73242.0,-5.63,-5.61,-5.61,0,*57
1537783627.07,11668,254.31,73236.0,-5.63,-5.69,-5.61,0,*50
1537783628.32,11669,254.31,73234.0,-5.63,-5.69,-5.61,0,*51
1537783629.61,11670,254.31,73228.8,-5.61,-5.69,-5.61,0,*5B
1537783630.86,11671,254.31,73228.5,-5.63,-5.69,-5.65,0,*5C
1537783632.14,11672,254.31,73228.3,-5.61,-5.93,-5.77,0,*5B
1537783633.36,11673,254.31,73226.8,-5.61,-6.05,-6.01,0,*54
1537783634.6,11674,254.31,73224.0,-5.61,-6.19,-6.05,0,*5A
1537783635.83,11675,254.31,73226.0,-5.61,-6.13,-6.01,0,*55
1537783637.08,11676,254.31,73226.0,-5.61,-6.19,-6.05,0,*58
1537783638.31,11677,254.31,73234.8,-5.63,-6.31,-6.19,0,*5C
1537783639.53,11678,254.31,73232.3,-5.63,-6.19,-6.13,0,*53
1537783640.72,11679,254.31,73234.5,-5.63,-6.05,-6.01,0,*5C
1537783641.97,11680,254.31,73236.8,-5.63,-5.89,-5.77,0,*5F
1537783643.23,11681,254.31,73242.8,-5.63,-5.65,-5.61,0,*5B
1537783644.48,11682,254.31,73246.8,-5.63,-5.69,-5.69,0,*5C
1537783645.73,11683,254.31,73252.0,-5.63,-5.69,-5.61,0,*55
1537783647.01,11684,254.31,73252.5,-5.61,-5.61,-5.61,0,*58
1537783648.27,11685,254.31,73254.0,-5.63,-5.69,-5.61,0,*53
1537783649.52,11686,254.31,73260.3,-5.63,-5.77,-5.69,0,*57
1537783650.79,11687,254.31,73262.3,-5.61,-5.81,-5.77,0,*52
1537783652.07,11688,254.31,73260.3,-5.61,-5.93,-5.77,0,*5E
1537783653.32,11689,254.31,73260.0,-5.63,-5.89,-5.77,0,*56
1537783654.57,11690,254.31,73260.3,-5.63,-5.77,-5.65,0,*5C
1537783655.82,11691,254.31,73258.0,-5.63,-5.61,-5.61,0,*5E
1537783657.04,11692,254.31,73256.0,-5.63,-5.61,-5.47,0,*59
1537783658.29,11693,254.25,73268.5,-5.61,-5.61,-5.47,0,*5A
1537783659.52,11694,254.31,73272.5,-5.63,-5.69,-5.51,0,*50
1537783660.75,11695,254.25,73280.5,-5.63,-6.01,-5.89,0,*59
1537783661.97,11696,254.31,73294.5,-5.63,-6.13,-5.93,0,*52
1537783663.22,11697,254.25,73272.5,-5.63,-6.27,-6.19,0,*55
1537783664.45,11698,254.25,73268.5,-5.63,-6.31,-6.19,0,*5D
1537783665.67,11699,254.25,73268.3,-5.63,-6.27,-6.13,0,*51
1537783666.86,11700,254.31,73264.5,-5.63,-6.39,-6.39,0,*57
1537783668.08,11701,254.25,73270.3,-5.63,-6.19,-6.13,0,*5C
1537783669.36,11702,254.25,73270.5,-5.65,-5.93,-5.81,0,*50
1537783670.62,11703,254.25,73270.5,-5.63,-5.93,-5.81,0,*57
1537783671.81,11704,254.25,73270.8,-5.63,-6.05,-6.05,0,*53
1537783673.05,11705,254.25,73274.5,-5.65,-6.05,-5.93,0,*58
1537783674.33,11706,254.25,73274.5,-5.65,-6.19,-6.19,0,*57
1537783675.57,11707,254.25,73274.3,-5.67,-5.81,-5.73,0,*59
1537783676.84,11708,254.25,73278.8,-5.65,-5.73,-5.65,0,*5E
1537783678.06,11709,254.25,73276.3,-5.65,-5.51,-5.39,0,*56
1537783679.29,11710,254.25,73280.0,-5.63,-5.35,-5.23,0,*51
1537783680.52,11711,254.25,73276.0,-5.63,-5.39,-5.27,0,*58
1537783681.77,11712,254.25,73280.0,-5.63,-5.81,-5.77,0,*5D
1537783683.02,11713,254.25,73288.5,-5.63,-5.93,-5.81,0,*56
1537783684.28,11714,254.25,73280.0,-5.63,-5.93,-5.81,0,*51
1537783685.56,11715,254.25,73284.8,-5.61,-5.89,-5.81,0,*59
1537783686.78,11716,254.25,73286.3,-5.61,-6.01,-6.05,0,*56
1537783687.98,11717,254.25,73310.3,-5.63,-6.43,-6.39,0,*5C
1537783689.18,11718,254.25,73318.0,-5.63,-6.43,-6.43,0,*5E
1537783690.4,11719,254.25,73320.5,-5.65,-6.73,-6.73,0,*59
1537783691.61,11720,254.25,73332.0,-5.67,-6.63,-6.51,0,*50
1537783692.81,11721,254.25,73316.5,-5.67,-6.85,-6.85,0,*50
1537783694.0,11722,254.25,73322.8,-5.67,-6.73,-6.59,0,*5B
1537783695.2,11723,254.31,73332.8,-5.67,-6.47,-6.43,0,*56
1537783696.42,11724,254.25,73328.5,-5.69,-6.47,-6.35,0,*5E
1537783697.64,11725,254.25,73318.5,-5.69,-6.47,-6.43,0,*5E
1537783698.86,11726,254.25,73334.3,-5.71,-6.69,-6.63,0,*5A
1537783700.11,11727,254.25,73312.3,-5.71,-7.05,-6.93,0,*5F
1537783701.37,11728,254.25,73302.3,-5.71,-6.93,-6.93,0,*5E
1537783702.6,11729,254.25,73276.5,-5.71,-6.81,-6.63,0,*53
1537783703.82,11730,254.25,73294.0,-5.73,-6.81,-6.73,0,*58
1537783705.02,11731,254.25,73276.5,-5.75,-6.59,-6.59,0,*52